Stations météo

réclame
Mon MeteoGroup
Guernsey, Grande-Bretagne (3894): Température de l'air & dewpoint: 09.11.2018 23:00:00 - 15.11.2018 23:00:00 (GMT)Guernsey, Grande-Bretagne (3894): Température de l'air -20cm & Température de l'air -100cm: 09.11.2018 23:00:00 - 15.11.2018 23:00:00 (GMT)Guernsey, Grande-Bretagne (3894): Vitesse du vent & gusts: 09.11.2018 23:00:00 - 15.11.2018 23:00:00 (GMT)Guernsey, Grande-Bretagne (3894): Direction du vent: 09.11.2018 23:00:00 - 15.11.2018 23:00:00 (GMT)Guernsey, Grande-Bretagne (3894): reduced air pressure: 09.11.2018 23:00:00 - 15.11.2018 23:00:00 (GMT)Guernsey, Grande-Bretagne (3894): visibility: 09.11.2018 23:00:00 - 15.11.2018 23:00:00 (GMT)Guernsey, Grande-Bretagne (3894): Quantités de précipitations: 09.11.2018 23:00:00 - 15.11.2018 23:00:00 (GMT)
Date & Time tt [°C] td [°C] tt -20cm [°C] tt -100cm [°C] ff [km/h] ff [knt] fx [km/h] fx [knt] dd ppp [hPa] vv [km] rr [mm]
15.11.2018 23:00:00 12,7 12,6 - - 15 8 - - SE 1020,7 7 -
15.11.2018 22:00:00 13,0 12,5 - - 15 8 - - SSE 1020,4 8 -
15.11.2018 21:00:00 13,1 12,7 - - 15 8 - - SSE 1020,2 8 -
15.11.2018 20:00:00 12,9 12,7 - - 16 9 - - SSE 1020,0 7 -
15.11.2018 19:00:00 12,6 12,4 - - 15 8 - - S 1019,8 9 -
15.11.2018 18:00:00 12,5 12,0 - - 18 10 - - S 1019,4 10 -
15.11.2018 17:00:00 12,5 11,7 - - 18 10 - - S 1018,9 10 -
15.11.2018 16:00:00 12,4 11,9 - - 22 12 - - S 1018,3 10 -
15.11.2018 15:00:00 12,1 11,8 - - 26 14 - - S 1018,4 10 -
15.11.2018 14:00:00 11,8 11,7 - - 26 14 - - SSE 1018,5 10 -
15.11.2018 13:00:00 11,9 11,9 - - 24 13 - - SSE 1018,8 0,5 -
15.11.2018 12:00:00 11,4 11,4 - - 22 12 - - SSE 1019,1 0,1 -
15.11.2018 11:00:00 11,4 11,4 - - 24 13 - - SE 1019,3 - -
15.11.2018 10:00:00 11,5 11,5 - - 26 14 - - SE 1019,5 0,1 -
15.11.2018 09:00:00 11,5 11,5 11,5 12,7 24 13 - - SSE 1019,6 - -
15.11.2018 08:00:00 11,8 11,8 - - 26 14 - - SE 1019,3 0,1 -
15.11.2018 07:00:00 12,3 12,3 - - 28 15 - - SSE 1018,6 0,1 -
15.11.2018 06:00:00 12,3 12,3 - - 24 13 - - S 1018,6 1,5 0,0
15.11.2018 05:00:00 11,8 11,6 - - 22 12 - - SSE 1018,7 3,5 -
15.11.2018 04:00:00 11,9 11,3 - - 18 10 - - S 1019,2 7 -
15.11.2018 03:00:00 11,4 10,8 - - 16 9 - - SSE 1019,1 10 -
15.11.2018 02:00:00 11,4 10,4 - - 18 10 - - S 1019,5 10 -
15.11.2018 01:00:00 11,8 10,2 - - 24 13 - - SSE 1019,6 10 -
15.11.2018 00:00:00 11,8 9,9 - - 21 11 - - S 1019,8 10 0,0
14.11.2018 23:00:00 11,9 9,5 - - 22 12 - - S 1019,9 10 -
14.11.2018 22:00:00 12,4 9,4 - - 18 10 - - S 1020,2 10 -
14.11.2018 21:00:00 12,4 10,2 - - 18 10 - - S 1020,4 10 -
14.11.2018 20:00:00 12,4 11,7 - - 22 12 - - S 1020,3 10 -
14.11.2018 19:00:00 12,3 11,1 - - 22 12 - - S 1020,3 10 -
14.11.2018 18:00:00 12,1 11,5 - - 21 11 - - SSE 1020,4 10 0,0
14.11.2018 17:00:00 11,8 10,3 - - 18 10 - - SSE 1020,2 10 -
14.11.2018 16:00:00 12,1 10,3 - - 18 10 - - SSE 1020,4 10 -
14.11.2018 15:00:00 12,3 10,3 - - 21 11 - - SSE 1020,3 10 -
14.11.2018 14:00:00 12,0 10,0 - - 21 11 - - SSE 1020,6 10 -
14.11.2018 13:00:00 11,6 10,0 - - 22 12 - - SSE 1021,1 10 -
14.11.2018 12:00:00 11,8 10,2 - - 21 11 - - SSE 1021,8 10 0,0
14.11.2018 11:00:00 12,2 9,9 - - 22 12 - - SSE 1022,3 10 -
14.11.2018 10:00:00 11,4 9,6 - - 21 11 - - S 1023,2 10 -
14.11.2018 09:00:00 10,8 8,9 11,2 12,7 21 11 - - S 1023,2 40 -
14.11.2018 08:00:00 10,8 8,9 - - 22 12 - - S 1023,1 10 -
14.11.2018 07:00:00 10,6 8,8 - - 24 13 - - S 1022,8 10 -
14.11.2018 06:00:00 10,6 9,2 - - 24 13 - - S 1023,0 10 0,0
14.11.2018 05:00:00 10,7 9,5 - - 26 14 - - S 1023,0 10 -
14.11.2018 04:00:00 11,2 9,5 - - 28 15 - - S 1023,2 10 -
14.11.2018 03:00:00 11,2 9,2 - - 22 12 - - S 1024,0 10 -
14.11.2018 02:00:00 10,9 9,2 - - 24 13 - - S 1024,8 10 -
14.11.2018 01:00:00 11,6 9,2 - - 28 15 - - S 1025,2 10 -
14.11.2018 00:00:00 11,7 9,4 - - 28 15 - - S 1025,5 10 0,0
13.11.2018 23:00:00 11,7 9,5 - - 24 13 - - SSW 1025,9 10 -
13.11.2018 22:00:00 12,1 9,2 - - 26 14 - - SSW 1025,8 10 -
13.11.2018 21:00:00 12,3 8,5 - - 28 15 - - SSW 1025,7 10 -
13.11.2018 20:00:00 12,6 8,0 - - 26 14 - - SSW 1025,6 10 -
13.11.2018 19:00:00 12,8 8,3 - - 21 11 - - SSW 1025,8 10 -
13.11.2018 18:00:00 12,5 8,3 - - 16 9 - - S 1025,9 10 -
13.11.2018 17:00:00 12,1 8,2 - - 15 8 - - SSW 1025,9 10 -
13.11.2018 16:00:00 12,8 8,4 - - 15 8 - - SW 1025,7 10 -
13.11.2018 15:00:00 13,5 8,7 - - 22 12 - - SW 1025,6 10 -
13.11.2018 14:00:00 13,1 9,0 - - 24 13 - - SW 1025,6 10 -
13.11.2018 13:00:00 13,6 9,4 - - 26 14 - - WSW 1025,5 10 -
13.11.2018 12:00:00 13,4 9,7 - - 28 15 - - SW 1025,1 10 -
13.11.2018 11:00:00 13,2 9,3 - - 29 16 - - WSW 1025,0 10 -
13.11.2018 10:00:00 12,6 8,4 - - 24 13 - - WSW 1024,3 10 -
13.11.2018 09:00:00 12,3 8,8 11,5 12,7 22 12 - - W 1023,7 10 -
13.11.2018 08:00:00 11,1 6,8 - - 26 14 - - W 1023,0 10 -
13.11.2018 07:00:00 11,4 7,6 - - 28 15 - - WSW 1021,7 10 -
13.11.2018 06:00:00 11,5 7,9 - - 28 15 - - WSW 1020,7 10 -
13.11.2018 05:00:00 11,6 8,0 - - 35 19 46 25 WSW 1019,9 10 -
13.11.2018 04:00:00 11,5 8,2 - - 35 19 59 32 WSW 1018,8 10 -
13.11.2018 03:00:00 9,7 6,7 - - 31 17 61 33 W 1018,3 10 -
13.11.2018 02:00:00 10,6 8,2 - - 35 19 57 31 W 1017,7 10 -
13.11.2018 01:00:00 11,7 7,6 - - 35 19 57 31 WSW 1016,8 10 -
13.11.2018 00:00:00 12,2 8,4 - - 37 20 54 29 SW 1016,3 10 0,0
12.11.2018 23:00:00 12,3 8,1 - - 35 19 57 31 SW 1015,7 10 -
12.11.2018 22:00:00 12,3 7,9 - - 34 18 50 27 SW 1015,4 10 -
12.11.2018 21:00:00 12,5 8,2 - - 35 19 55 30 SW 1014,8 10 -
12.11.2018 20:00:00 12,6 9,0 - - 31 17 55 30 SW 1014,4 35 -
12.11.2018 19:00:00 12,6 7,8 - - 37 20 57 31 SW 1014,0 10 -
12.11.2018 18:00:00 13,1 6,7 - - 39 21 52 28 SW 1013,6 30 0,0
12.11.2018 17:00:00 13,3 6,5 - - 34 18 48 26 SW 1012,9 10 -
12.11.2018 16:00:00 13,1 8,5 - - 26 14 - - SSW 1012,6 10 -
12.11.2018 15:00:00 14,1 9,1 - - 24 13 - - SSW 1012,2 10 -
12.11.2018 14:00:00 14,3 8,4 - - 28 15 - - SSW 1011,9 10 -
12.11.2018 13:00:00 14,2 8,9 - - 28 15 - - SSW 1011,4 30 -
12.11.2018 12:00:00 13,7 9,4 - - 31 17 - - SSW 1011,6 10 0,0
12.11.2018 11:00:00 13,6 9,9 - - 28 15 - - SSW 1011,0 10 -
12.11.2018 10:00:00 13,1 10,2 - - 24 13 - - SSW 1010,6 10 -
12.11.2018 09:00:00 12,6 10,0 11,5 12,7 24 13 - - SSW 1010,7 10 -
12.11.2018 08:00:00 11,9 9,8 - - 24 13 - - SSW 1010,0 10 -
12.11.2018 07:00:00 11,9 9,9 - - 22 12 - - SW 1009,2 10 -
12.11.2018 06:00:00 11,9 9,8 - - 22 12 - - SW 1008,3 35 0,0
12.11.2018 05:00:00 12,1 9,9 - - 21 11 - - SW 1007,6 35 -
12.11.2018 04:00:00 12,1 9,7 - - 22 12 - - SSW 1007,5 10 -
12.11.2018 03:00:00 12,1 9,5 - - 21 11 - - SSW 1007,2 10 -
12.11.2018 02:00:00 12,1 9,4 - - 22 12 - - SSW 1006,9 10 -
12.11.2018 01:00:00 12,0 9,1 - - 22 12 - - SSW 1006,6 10 -
12.11.2018 00:00:00 12,0 9,3 - - 28 15 54 29 SSW 1007,0 10 0,0
11.11.2018 23:00:00 12,1 9,4 - - 26 14 - - SSW 1006,7 10 -
11.11.2018 22:00:00 12,1 9,7 - - 26 14 - - SSW 1006,4 10 -
11.11.2018 21:00:00 12,2 8,9 - - 24 13 - - SSW 1006,2 10 -
11.11.2018 20:00:00 12,3 9,0 - - 28 15 - - SSW 1006,0 10 -
11.11.2018 19:00:00 12,5 8,0 - - 21 11 - - SSW 1005,5 10 -
11.11.2018 18:00:00 12,7 6,6 - - 26 14 - - SSW 1005,2 10 -
11.11.2018 17:00:00 12,6 6,6 - - 26 14 - - SW 1003,8 10 -
11.11.2018 16:00:00 12,8 7,3 - - 26 14 - - SW 1003,5 10 -
11.11.2018 15:00:00 13,4 8,0 - - 26 14 - - SW 1003,2 10 -
11.11.2018 14:00:00 13,3 8,3 - - 26 14 - - SSW 1002,7 10 -
11.11.2018 13:00:00 13,7 9,1 - - 28 15 - - SW 1002,2 40 -
11.11.2018 12:00:00 13,4 8,6 - - 29 16 - - SW 1001,8 10 -
11.11.2018 11:00:00 12,3 8,6 - - 26 14 - - SW 1001,5 10 -
11.11.2018 10:00:00 12,5 9,5 - - 28 15 - - SSW 1000,8 10 -
11.11.2018 09:00:00 12,1 7,8 11,5 12,7 31 17 50 27 SW 999,9 10 -
11.11.2018 08:00:00 11,6 7,3 - - 37 20 57 31 WSW 998,9 40 -
11.11.2018 07:00:00 11,7 8,5 - - 37 20 54 29 SW 997,6 10 -
11.11.2018 06:00:00 11,0 9,3 - - 37 20 52 28 WSW 996,9 10 -
11.11.2018 05:00:00 11,6 9,0 - - 35 19 67 36 SW 1096,3 10 -
11.11.2018 04:00:00 11,7 8,4 - - 42 23 63 34 SW 995,6 10 -
11.11.2018 03:00:00 11,6 8,6 - - 41 22 57 31 SSW 995,2 10 -
11.11.2018 02:00:00 11,3 10,3 - - 39 21 52 28 SSW 995,3 10 -
11.11.2018 01:00:00 11,9 9,8 - - 29 16 46 25 SSW 995,5 10 -
11.11.2018 00:00:00 11,6 8,6 - - 34 18 - - SSW 995,9 10 -
10.11.2018 23:00:00 11,4 8,9 - - 28 15 48 26 SSW 995,6 10 -
10.11.2018 22:00:00 12,0 8,8 - - 29 16 - - SSW 995,7 10 -
10.11.2018 21:00:00 12,1 9,4 - - 31 17 48 26 SW 995,6 10 -
10.11.2018 20:00:00 12,1 10,2 - - 31 17 50 27 SSW 995,4 10 -
10.11.2018 19:00:00 12,3 9,9 - - 31 17 48 26 SSW 995,4 10 -
10.11.2018 18:00:00 12,4 9,1 - - 28 15 - - SSW 995,4 30 -
10.11.2018 17:00:00 12,3 9,0 - - 28 15 - - SSW 995,1 10 -
10.11.2018 16:00:00 12,8 9,0 - - 29 16 48 26 SSW 995,0 10 -
10.11.2018 15:00:00 13,0 12,5 - - 35 19 52 28 SSW 994,8 10 -
10.11.2018 14:00:00 13,4 13,0 - - 31 17 50 27 SSW 994,4 10 -
10.11.2018 13:00:00 13,4 12,8 - - 34 18 48 26 SSW 995,0 25 -
10.11.2018 12:00:00 13,9 13,0 - - 29 16 48 26 SSW 995,5 10 0,0
10.11.2018 11:00:00 13,4 12,5 - - 34 18 46 25 SSW 996,0 10 -
10.11.2018 10:00:00 12,9 12,1 - - 34 18 48 26 SSW 996,0 10 -
10.11.2018 09:00:00 12,6 11,7 11,5 12,7 26 14 - - SSW 996,2 10 -
10.11.2018 08:00:00 11,8 10,9 - - 26 14 - - SW 995,6 10 -
10.11.2018 07:00:00 11,7 10,6 - - 26 14 - - SW 995,5 10 -
10.11.2018 06:00:00 11,7 10,7 - - 28 15 - - SW 995,6 10 -
10.11.2018 05:00:00 12,2 9,9 - - 29 16 - - SW 995,7 10 -
10.11.2018 04:00:00 12,3 10,1 - - 29 16 - - WSW 995,3 10 -
10.11.2018 03:00:00 12,7 10,8 - - 26 14 - - WSW 994,8 10 -
10.11.2018 02:00:00 12,6 10,4 - - 29 16 - - WSW 994,6 10 -
10.11.2018 01:00:00 13,0 11,0 - - 31 17 46 25 WSW 994,2 10 -
10.11.2018 00:00:00 12,4 10,9 - - 28 15 - - SW 994,0 10 -
09.11.2018 23:00:00 12,0 11,6 - - 28 15 57 31 SSW 994,1 10 -

tt = Température de l'air
td = dewpoint
tt -20cm = Température de l'air -20cm
tt -100cm = Température de l'air -100cm
ff = Vitesse du vent
fx = gusts
dd = Direction du vent
ppp = reduced air pressure
vv = visibility
rr = Quantités de précipitations

stations d'obs. à proximité